Location: Tierz
(42.1336°N, 0.3549°W)
Time: 11:15:07
(UTC+00:00)

Cosmos 968 Rocket - Pass Details

Date: 29 October 2020
Orbit: 741 x 770 km, 74.0° (Epoch: 29 November)

Event Time Altitude Azimuth Distance (km) Brightness Sun altitude
Rises 18:17:49 0° 339° (NNW) 3,234 6.9 -15.2°
Reaches altitude 10° 18:20:12 10° 340° (NNW) 2,300 6.2 -15.6°
Maximum altitude 18:25:26 89° 253° (WSW) 761 3.4 -16.6°
Drops below altitude 10° 18:30:34 10° 162° (SSE) 2,264 5.8 -17.6°
Sets 18:32:54 0° 162° (SSE) 3,180 6.6 -18.0°
